Regional Weather Roundup
Issued by NWS

Home | Current Version | Previous Version | Graphics & Text | Print | Product List | Glossary On
Versions: 1 2 3 4 5 6 7 8 9 10 11 12 13 14 15 16 17 18 19 20 21 22 23 24 25 26 27 28
000
ASUS45 KBOU 310507
RWRCO

WEATHER ROUNDUP FOR COLORADO
NATIONAL WEATHER SERVICE DENVER/BOULDER CO
1100 PM MDT THU OCT 30 2014

NOTE: "FAIR" INDICATES FEW OR NO CLOUDS BELOW 12000 FEET WITH NO
SIGNIFICANT WEATHER AND/OR OBSTRUCTIONS TO VISIBILITY.

COZ001>005-013-030-031-310600-
...NORTHWEST COLORADO...

CITY           SKY/WX    TMP DP  RH WIND       PRES   REMARKS
CRAIG          CLEAR     32  27  81 CALM      30.32S
HAYDEN         CLEAR     41  27  56 E9        30.33S
MEEKER         CLEAR     40  28  62 E6        30.32S
MOUNT WERNER   NOT AVBL
STEAMBOAT SPGS CLEAR     38  27  65 CALM      30.35S
WALDEN         CLEAR     30  25  80 SE7       30.40F WCI  23
$$

COZ006>008-011-310600-
...WEST CENTRAL VALLEYS...

CITY           SKY/WX    TMP DP  RH WIND       PRES   REMARKS
GRAND JUNCTION CLEAR     47  25  42 SE7       30.22S
MONTROSE       CLEAR     44  25  47 SE13      30.30F
EAGLE          CLEAR     37  25  60 CALM      30.39R
RIFLE          CLEAR     42  26  53 CALM      30.29S
DELTA          CLEAR     49  26  40 CALM      30.27F
NUCLA          CLEAR     45  23  42 E7        30.31S HAZE
$$

COZ017>023-064>068-310600-
...SOUTHWEST COLORADO...

CITY           SKY/WX    TMP DP  RH WIND       PRES   REMARKS
DURANGO        PTCLDY    37  26  64 CALM      30.35R
CORTEZ         CLEAR     37  23  56 CALM      30.30S
PAGOSA SPRINGS PTCLDY    39  21  48 CALM      30.41S
TELLURIDE      CLEAR     44  18  34 SE6       30.46S
WOLF CREEK PAS CLEAR     36  12  38 SW14      30.61S
$$

COZ009-010-012-014-032>034-037-058>063-310600-
...CENTRAL COLORADO...

CITY           SKY/WX    TMP DP  RH WIND       PRES   REMARKS
ASPEN          CLEAR     35  23  61 SW6       30.39S WCI  30
BUENA VISTA    CLEAR     32  20  62 W3        30.49R
COPPER MTN     CLEAR     37   9  30 S15       30.58F
BERTHOUD PASS  FAIR      28  27  93 W7        30.60F WCI  21
COTTONWOOD PAS CLEAR     39  19  45 CALM      30.53S
GUNNISON       CLEAR     34  16  47 CALM      30.44R
KREMMLING      PTCLDY    32  27  80 CALM      30.42S
LEADVILLE      CLEAR     29  14  53 CALM      30.51R
MONARCH PASS   CLEAR     36  16  44 SW6       30.69S
SALIDA         CLEAR     42  23  47 S3        30.54S
SUNLIGHT       CLEAR     41  19  42 CALM      30.53F
WILKERSON PASS NOT AVBL
$$

COZ069>075-310600-
...SAN LUIS VALLEY/SANGRE DE CRISTO MOUNTAINS...

CITY           SKY/WX    TMP DP  RH WIND       PRES   REMARKS
ALAMOSA        PTCLDY    34  18  52 S8        30.39R WCI  27
LA VETA PASS   NOT AVBL
SAGUACHE       NOT AVBL
$$

COZ035-036-038>040-310600-
...NORTHERN COLORADO FRONT RANGE...

CITY           SKY/WX    TMP DP  RH WIND       PRES   REMARKS
DENVER INTL AP PTCLDY    40  26  57 S12       30.40R
DMNS CITY PARK   N/A     45  28  52 SE3       30.40S
AURORA         PTCLDY    45  26  46 SE13      30.42R
FRONT RANGE AP PTCLDY    43  30  61 S10       30.42S
ERIE MUNI ARPT PTCLDY    36  29  75 CALM      30.40S
BOULDER MUN AP PTCLDY    45  28  53 SW3       30.41R
CENTENNIAL     PTCLDY    43  26  51 SE14      30.41S
BROOMFIELD     NOT AVBL
FORT COLLINS   PTCLDY    46  27  46 SE5       30.43R
LONGMONT       PTCLDY    40  29  65 CALM      30.42S
$$

COZ041-046-047-076>085-087-088-310600-
...PIKES PEAK/PALMER DIVIDE AND SOUTHERN FOOTHILLS...

CITY           SKY/WX    TMP DP  RH WIND       PRES   REMARKS
COLO. SPRINGS  CLEAR     43  24  47 E7        30.46R
A. F. ACADEMY  CLEAR     30  22  69 N7        30.45R WCI  24
ELLICOTT       CLEAR     40  24  53 E10       30.44R
FALCON         CLEAR     37  23  58 CALM      30.47S
FORT CARSON    CLEAR     42  24  47 SE7       30.44R
LIMON          CLEAR     31  23  72 CALM      30.44R
MONUMENT HILL  CLEAR     34  25  69 S9        30.45R WCI  26
TRINIDAD       CLEAR     39  22  50 W7        30.43S
$$

COZ042>045-048>051-090-091-310600-
...NORTHEAST COLORADO...

CITY           SKY/WX    TMP DP  RH WIND       PRES   REMARKS
GREELEY ARPT   PTCLDY    37  19  48 CALM      30.42R
AKRON          CLEAR     39  28  64 E9        30.42R
BURLINGTON     CLEAR     39  27  62 E5        30.42R
WRAY           CLEAR     39  29  69 NE9       30.43R
STERLING       NOT AVBL
HOLYOKE        CLEAR     36  30  80 E3        30.44R
FORT MORGAN    CLEAR     37  26  66 E9        30.42R
$$

COZ086-089-092>099-310600-
...SOUTHEAST COLORADO...

CITY           SKY/WX    TMP DP  RH WIND       PRES   REMARKS
PUEBLO         CLEAR     41  23  48 N8        30.42R
LA JUNTA       CLEAR     44  26  49 CALM      30.40R
LAMAR          CLEAR     35  25  66 SW6       30.39R WCI  30
SPRINGFIELD      N/A     38  25  59 N5        30.40R
$$



USA.gov is the U.S. government's official web portal to all federal, state and local government web resources and services.